• En España
  • Lista de países
  • Para 7 días
  • Temperatura del agua
  • Mapa Satelital
  • El tiempo en el mapa
  • Informadores
  • user-avatar
    Iniciar sesión

    Tiempo cada hora Ulyanovo

    Hoy, 15 Agosto, Miércoles

    Tiempo Temperatura Precipitaciones Viento Presión Humedad
    00:00 +13°C° 0 mm 1 mps 746 mmHg 95%
    01:00 +12°C° 0 mm 1 mps 746 mmHg 96%
    02:00 +12°C° 0 mm 1 mps 747 mmHg 96%
    03:00 +11°C° 0 mm 1 mps 747 mmHg 96%
    04:00 +11°C° 0 mm 1 mps 747 mmHg 96%
    05:00 +12°C° 0 mm 1 mps 747 mmHg 94%
    06:00 +13°C° 0 mm 1 mps 747 mmHg 91%
    07:00 +14°C° 0 mm 1 mps 747 mmHg 88%
    08:00 +16°C° 0 mm 1 mps 747 mmHg 78%
    09:00 +18°C° 0 mm 2 mps 747 mmHg 68%
    10:00 +20°C° 0 mm 2 mps 748 mmHg 57%
    11:00 +20°C° 0 mm 2 mps 748 mmHg 54%
    12:00 +21°C° 0 mm 2 mps 748 mmHg 50%
    13:00 +23°C° 0 mm 2 mps 748 mmHg 47%
    14:00 +23°C° 0 mm 2 mps 748 mmHg 49%
    15:00 +23°C° 0 mm 2 mps 748 mmHg 50%
    16:00 +23°C° 0 mm 2 mps 748 mmHg 52%
    17:00 +21°C° 0 mm 2 mps 748 mmHg 60%
    18:00 +19°C° 0 mm 2 mps 748 mmHg 68%
    19:00 +19°C° 0 mm 1 mps 748 mmHg 76%
    20:00 +18°C° 0 mm 1 mps 749 mmHg 81%
    21:00 +15°C° 0 mm 1 mps 749 mmHg 86%
    22:00 +14°C° 0 mm 1 mps 749 mmHg 91%
    23:00 +13°C° 0 mm 1 mps 749 mmHg 92%

    Mañana, 16 Agosto, Jueves

    Tiempo Temperatura Precipitaciones Viento Presión Humedad
    00:00 +13°C° 0 mm 1 mps 749 mmHg 93%
    01:00 +12°C° 0 mm 1 mps 748 mmHg 95%
    02:00 +12°C° 0 mm 1 mps 749 mmHg 95%
    03:00 +12°C° 0 mm 1 mps 749 mmHg 95%
    04:00 +12°C° 0 mm 1 mps 749 mmHg 96%
    05:00 +12°C° 0,8 mm 1 mps 748 mmHg 96%
    06:00 +13°C° 0,8 mm 1 mps 748 mmHg 96%
    07:00 +13°C° 0,8 mm 1 mps 748 mmHg 97%
    08:00 +13°C° 1,7 mm 1 mps 748 mmHg 97%
    09:00 +14°C° 1,7 mm 2 mps 747 mmHg 97%
    10:00 +14°C° 1,7 mm 2 mps 747 mmHg 97%
    11:00 +14°C° 0,7 mm 2 mps 747 mmHg 97%
    12:00 +14°C° 0,7 mm 2 mps 746 mmHg 97%
    13:00 +14°C° 0,7 mm 2 mps 746 mmHg 96%
    14:00 +14°C° 0,3 mm 2 mps 746 mmHg 96%
    15:00 +14°C° 0,3 mm 2 mps 746 mmHg 96%
    16:00 +15°C° 0,3 mm 2 mps 746 mmHg 96%
    17:00 +15°C° 0 mm 2 mps 746 mmHg 96%
    18:00 +15°C° 0 mm 2 mps 746 mmHg 95%
    19:00 +15°C° 0 mm 2 mps 746 mmHg 94%
    20:00 +14°C° 0 mm 2 mps 746 mmHg 95%
    21:00 +13°C° 0 mm 2 mps 747 mmHg 96%
    22:00 +13°C° 0 mm 2 mps 747 mmHg 97%
    23:00 +12°C° 0 mm 2 mps 747 mmHg 97%

    Pasado mañana, 17 Agosto, Viernes

    Tiempo Temperatura Precipitaciones Viento Presión Humedad
    00:00 +12°C° 0 mm 2 mps 747 mmHg 96%
    01:00 +10°C° 0 mm 2 mps 748 mmHg 96%
    02:00 +10°C° 0 mm 2 mps 748 mmHg 96%
    03:00 +9°C° 0 mm 2 mps 748 mmHg 96%
    04:00 +9°C° 0 mm 2 mps 749 mmHg 96%
    05:00 +9°C° 0 mm 2 mps 749 mmHg 94%
    06:00 +10°C° 0 mm 2 mps 749 mmHg 91%
    07:00 +11°C° 0 mm 3 mps 750 mmHg 88%
    08:00 +13°C° 0 mm 3 mps 750 mmHg 78%
    09:00 +16°C° 0 mm 3 mps 750 mmHg 67%
    10:00 +18°C° 0 mm 3 mps 750 mmHg 56%
    11:00 +18°C° 0 mm 3 mps 751 mmHg 54%
    12:00 +19°C° 0 mm 3 mps 751 mmHg 51%
    13:00 +20°C° 0 mm 4 mps 751 mmHg 48%
    14:00 +20°C° 0,1 mm 4 mps 751 mmHg 51%
    15:00 +19°C° 0,1 mm 4 mps 751 mmHg 53%
    16:00 +19°C° 0,1 mm 4 mps 751 mmHg 55%
    17:00 +18°C° 0 mm 3 mps 751 mmHg 60%
    18:00 +16°C° 0 mm 3 mps 752 mmHg 65%
    19:00 +14°C° 0 mm 3 mps 752 mmHg 70%
    20:00 +13°C° 0 mm 3 mps 753 mmHg 74%
    21:00 +11°C° 0 mm 3 mps 753 mmHg 77%
    22:00 +9°C° 0 mm 2 mps 753 mmHg 81%
    23:00 +9°C° 0 mm 2 mps 753 mmHg 85%

    18 Agosto, Sábado

    Tiempo Temperatura Precipitaciones Viento Presión Humedad
    00:00 +8°C° 0 mm 2 mps 754 mmHg 89%
    01:00 +7°C° 0 mm 2 mps 754 mmHg 93%
    02:00 +6°C° 0 mm 2 mps 754 mmHg 94%
    03:00 +6°C° 0 mm 2 mps 754 mmHg 95%
    04:00 +6°C° 0 mm 2 mps 754 mmHg 97%
    05:00 +7°C° 0 mm 2 mps 755 mmHg 93%
    06:00 +8°C° 0 mm 3 mps 755 mmHg 89%
    07:00 +9°C° 0 mm 3 mps 755 mmHg 85%
    08:00 +9°C° 0 mm 3 mps 755 mmHg 83%
    09:00 +10°C° 0 mm 3 mps 756 mmHg 80%
    10:00 +10°C° 0 mm 3 mps 756 mmHg 77%
    11:00 +12°C° 0 mm 3 mps 756 mmHg 71%
    12:00 +13°C° 0 mm 3 mps 756 mmHg 65%
    13:00 +16°C° 0 mm 3 mps 755 mmHg 58%
    14:00 +16°C° 0 mm 3 mps 755 mmHg 56%
    15:00 +17°C° 0 mm 3 mps 755 mmHg 54%
    16:00 +17°C° 0 mm 3 mps 755 mmHg 52%
    17:00 +16°C° 0 mm 2 mps 756 mmHg 57%
    18:00 +15°C° 0 mm 1 mps 756 mmHg 63%
    19:00 +14°C° 0 mm 1 mps 756 mmHg 69%
    20:00 +13°C° 0 mm 1 mps 756 mmHg 74%
    21:00 +12°C° 0 mm 1 mps 756 mmHg 78%
    22:00 +10°C° 0 mm 1 mps 756 mmHg 82%
    23:00 +10°C° 0 mm 1 mps 757 mmHg 85%

    19 Agosto, Domingo

    Tiempo Temperatura Precipitaciones Viento Presión Humedad
    00:00 +9°C° 0 mm 1 mps 757 mmHg 88%
    01:00 +7°C° 0 mm 0 mps 757 mmHg 91%
    02:00 +7°C° 0 mm 0 mps 757 mmHg 92%
    03:00 +6°C° 0 mm 0 mps 757 mmHg 92%
    04:00 +6°C° 0 mm 0 mps 758 mmHg 93%
    05:00 +8°C° 0 mm 0 mps 758 mmHg 88%
    06:00 +9°C° 0 mm 0 mps 758 mmHg 83%
    07:00 +10°C° 0 mm 0 mps 758 mmHg 78%
    08:00 +13°C° 0 mm 0 mps 758 mmHg 70%
    09:00 +15°C° 0 mm 0 mps 757 mmHg 62%
    10:00 +19°C° 0 mm 1 mps 757 mmHg 54%
    11:00 +20°C° 0 mm 1 mps 757 mmHg 50%
    12:00 +21°C° 0 mm 1 mps 756 mmHg 47%
    13:00 +22°C° 0 mm 1 mps 756 mmHg 44%
    14:00 +22°C° 0 mm 1 mps 756 mmHg 44%
    15:00 +22°C° 0 mm 1 mps 755 mmHg 45%
    16:00 +22°C° 0 mm 1 mps 755 mmHg 46%
    17:00 +21°C° 0 mm 1 mps 755 mmHg 54%
    18:00 +19°C° 0 mm 1 mps 755 mmHg 62%
    19:00 +16°C° 0 mm 0 mps 755 mmHg 69%
    20:00 +15°C° 0 mm 0 mps 755 mmHg 73%
    21:00 +14°C° 0 mm 1 mps 755 mmHg 76%
    22:00 +13°C° 0 mm 1 mps 755 mmHg 80%
    23:00 +13°C° 0 mm 1 mps 755 mmHg 82%

    20 Agosto, Lunes

    Tiempo Temperatura Precipitaciones Viento Presión Humedad
    00:00 +12°C° 0 mm 1 mps 755 mmHg 84%
    01:00 +12°C° 0 mm 1 mps 755 mmHg 86%
    02:00 +11°C° 0 mm 1 mps 755 mmHg 88%
    03:00 +11°C° 0 mm 1 mps 755 mmHg 89%
    04:00 +10°C° 0 mm 1 mps 754 mmHg 91%
    05:00 +12°C° 0 mm 1 mps 754 mmHg 86%
    06:00 +13°C° 0 mm 1 mps 754 mmHg 82%
    07:00 +14°C° 0 mm 1 mps 754 mmHg 78%
    08:00 +16°C° 0 mm 1 mps 754 mmHg 70%
    09:00 +19°C° 0 mm 1 mps 753 mmHg 63%
    10:00 +22°C° 0 mm 1 mps 753 mmHg 56%
    11:00 +23°C° 0 mm 1 mps 753 mmHg 52%
    12:00 +23°C° 0 mm 1 mps 753 mmHg 49%
    13:00 +24°C° 0 mm 1 mps 752 mmHg 46%
    14:00 +24°C° 0 mm 1 mps 752 mmHg 46%
    15:00 +24°C° 0 mm 1 mps 752 mmHg 47%
    16:00 +24°C° 0 mm 2 mps 751 mmHg 47%
    17:00 +23°C° 0 mm 1 mps 751 mmHg 55%
    18:00 +21°C° 0 mm 1 mps 751 mmHg 63%
    19:00 +20°C° 0 mm 1 mps 751 mmHg 71%
    20:00 +18°C° 0 mm 1 mps 751 mmHg 75%
    21:00 +16°C° 0 mm 1 mps 751 mmHg 78%
    22:00 +14°C° 0 mm 1 mps 751 mmHg 81%
    23:00 +14°C° 0 mm 1 mps 750 mmHg 83%
    Mostrar más